EJU185D LFBD-LFML

Flight info

Callsign EJU185D
Flight time 0h 50m
Altitude 33000
Route OBLOC DCT SECHE DCT SOVET DCT FJR
Aircraft A320/M-SDE2E3FGHIJ1RWXYZ/LB1

Departure

Time 2026-05-06 19:43
Airport Bordeaux–Mérignac Airport (LFBD)

Arrival

Time 2026-05-06 20:33
Airport Marseille Provence Airport (LFML)
Time Latitude Longitude Altitude Speed Heading
2026-05-06 19:08 44.82859 -0.69968 163 ft 0 kts 15°
2026-05-06 19:34 44.82855 -0.69969 163 ft 2 kts 15°
2026-05-06 19:34 44.82839 -0.69977 163 ft 2 kts 44°
2026-05-06 19:34 44.82827 -0.69993 163 ft 2 kts 44°
2026-05-06 19:34 44.82818 -0.70012 163 ft 2 kts 97°
2026-05-06 19:35 44.82818 -0.70015 163 ft 0 kts 97°
2026-05-06 19:38 44.82816 -0.70005 163 ft 3 kts 105°
2026-05-06 19:38 44.82809 -0.69982 163 ft 2 kts 115°
2026-05-06 19:39 44.82791 -0.69922 163 ft 10 kts 111°
2026-05-06 19:39 44.82772 -0.69834 163 ft 9 kts 105°
2026-05-06 19:39 44.82749 -0.69748 163 ft 9 kts 136°
2026-05-06 19:39 44.82718 -0.69748 163 ft 7 kts 210°
2026-05-06 19:40 44.82709 -0.69836 163 ft 10 kts 281°
2026-05-06 19:40 44.82719 -0.69888 163 ft 6 kts 284°
2026-05-06 19:40 44.82719 -0.69908 163 ft 2 kts 265°
2026-05-06 19:40 44.82707 -0.69932 163 ft 4 kts 220°
2026-05-06 19:41 44.82685 -0.69941 163 ft 4 kts 195°
2026-05-06 19:41 44.82656 -0.69952 163 ft 5 kts 195°
2026-05-06 19:41 44.82606 -0.69971 164 ft 9 kts 195°
2026-05-06 19:41 44.82551 -0.70014 165 ft 10 kts 239°
2026-05-06 19:42 44.82563 -0.70112 165 ft 13 kts 287°
2026-05-06 19:42 44.82647 -0.70511 164 ft 79 kts 287°
2026-05-06 19:42 44.82867 -0.71556 164 ft 139 kts 287°
2026-05-06 19:42 44.83171 -0.73008 524 ft 156 kts 285°
2026-05-06 19:43 44.83182 -0.74512 1195 ft 160 kts 246°
2026-05-06 19:43 44.82416 -0.75628 1837 ft 164 kts 206°
2026-05-06 19:43 44.81279 -0.75790 2434 ft 170 kts 166°
2026-05-06 19:43 44.80138 -0.75360 3004 ft 174 kts 168°
2026-05-06 19:44 44.78895 -0.74995 3360 ft 192 kts 168°
2026-05-06 19:44 44.77658 -0.74081 3622 ft 215 kts 131°
2026-05-06 19:44 44.76993 -0.72123 3874 ft 236 kts 101°
2026-05-06 19:44 44.76612 -0.69760 4256 ft 259 kts 100°
2026-05-06 19:45 44.76212 -0.67199 4858 ft 274 kts 100°
2026-05-06 19:45 44.75798 -0.64556 5699 ft 279 kts 100°
2026-05-06 19:45 44.75371 -0.61861 6585 ft 285 kts 100°
2026-05-06 19:45 44.74932 -0.59131 7488 ft 287 kts 101°
2026-05-06 19:46 44.74481 -0.56378 8303 ft 291 kts 100°
2026-05-06 19:46 44.74024 -0.53575 9118 ft 296 kts 101°
2026-05-06 19:46 44.73560 -0.50737 9924 ft 300 kts 101°
2026-05-06 19:46 44.73081 -0.47812 10407 ft 318 kts 101°
2026-05-06 19:47 44.72570 -0.44676 10802 ft 336 kts 101°
2026-05-06 19:47 44.72042 -0.41445 11498 ft 342 kts 102°
2026-05-06 19:47 44.71508 -0.38206 12254 ft 346 kts 102°
2026-05-06 19:47 44.70957 -0.34887 13008 ft 350 kts 102°
2026-05-06 19:48 44.70353 -0.31555 13712 ft 354 kts 106°
2026-05-06 19:48 44.69602 -0.28239 14402 ft 358 kts 107°
2026-05-06 19:48 44.68794 -0.24913 15080 ft 362 kts 108°
2026-05-06 19:48 44.67951 -0.21563 15732 ft 365 kts 108°
2026-05-06 19:49 44.67092 -0.18180 16369 ft 370 kts 108°
2026-05-06 19:49 44.66232 -0.14760 17044 ft 372 kts 108°
2026-05-06 19:49 44.65373 -0.11310 17672 ft 377 kts 107°
2026-05-06 19:49 44.64516 -0.07804 18301 ft 380 kts 107°
2026-05-06 19:50 44.63669 -0.04261 18901 ft 383 kts 107°
2026-05-06 19:50 44.62821 -0.00692 19470 ft 387 kts 107°
2026-05-06 19:50 44.61977 0.02856 20008 ft 390 kts 108°
2026-05-06 19:50 44.61105 0.06491 20538 ft 394 kts 108°
2026-05-06 19:51 44.60223 0.10142 21061 ft 397 kts 108°
2026-05-06 19:51 44.59327 0.13825 21577 ft 400 kts 109°
2026-05-06 19:51 44.58424 0.17526 22077 ft 403 kts 108°
2026-05-06 19:51 44.57515 0.21255 22568 ft 406 kts 108°
2026-05-06 19:52 44.56597 0.25017 23052 ft 409 kts 108°
2026-05-06 19:52 44.55672 0.28800 23512 ft 412 kts 109°
2026-05-06 19:52 44.54735 0.32612 23970 ft 415 kts 109°
2026-05-06 19:52 44.53793 0.36438 24496 ft 415 kts 109°
2026-05-06 19:53 44.52857 0.40250 25108 ft 413 kts 109°
2026-05-06 19:53 44.51919 0.44059 25598 ft 414 kts 109°
2026-05-06 19:53 44.50974 0.47883 26025 ft 417 kts 109°
2026-05-06 19:53 44.50021 0.51732 26435 ft 419 kts 109°
2026-05-06 19:54 44.49066 0.55589 26991 ft 416 kts 109°
2026-05-06 19:54 44.48124 0.59396 27602 ft 413 kts 109°
2026-05-06 19:54 44.47181 0.63205 28081 ft 413 kts 109°
2026-05-06 19:54 44.46252 0.66947 28603 ft 412 kts 109°
2026-05-06 19:55 44.45313 0.70727 29099 ft 410 kts 109°
2026-05-06 19:55 44.44376 0.74493 29602 ft 408 kts 109°
2026-05-06 19:55 44.43443 0.78237 30098 ft 406 kts 109°
2026-05-06 19:55 44.42512 0.81962 30593 ft 404 kts 109°
2026-05-06 19:56 44.41583 0.85660 31086 ft 402 kts 109°
2026-05-06 19:56 44.40645 0.89390 31223 ft 411 kts 110°
2026-05-06 19:56 44.39687 0.93194 31351 ft 419 kts 110°
2026-05-06 19:56 44.38706 0.97078 31478 ft 426 kts 110°
2026-05-06 19:57 44.37712 1.01017 31606 ft 434 kts 110°
2026-05-06 19:57 44.36698 1.05024 31735 ft 440 kts 110°
2026-05-06 19:57 44.35667 1.09090 31861 ft 447 kts 110°
2026-05-06 19:57 44.34628 1.13173 31983 ft 454 kts 111°
2026-05-06 19:58 44.33563 1.17350 32122 ft 460 kts 111°
2026-05-06 19:58 44.32485 1.21579 32297 ft 464 kts 111°
2026-05-06 19:58 44.31401 1.25832 32575 ft 465 kts 111°
2026-05-06 19:58 44.30316 1.30085 32882 ft 466 kts 111°
2026-05-06 19:59 44.28146 1.38584 33000 ft 457 kts 112°
2026-05-06 19:59 44.26016 1.46903 32999 ft 454 kts 112°
2026-05-06 20:00 44.23875 1.55181 32998 ft 454 kts 113°
2026-05-06 20:00 44.21718 1.63462 33009 ft 455 kts 113°
2026-05-06 20:01 44.19561 1.71761 33007 ft 456 kts 113°
2026-05-06 20:01 44.17399 1.80052 33004 ft 456 kts 113°
2026-05-06 20:02 44.15229 1.88346 32999 ft 456 kts 114°
2026-05-06 20:02 44.13419 1.95234 32998 ft 456 kts 114°
2026-05-06 20:03 44.10876 2.04856 32997 ft 456 kts 114°
2026-05-06 20:03 44.08687 2.13138 32998 ft 456 kts 114°
2026-05-06 20:04 44.06842 2.20071 32997 ft 456 kts 114°
2026-05-06 20:04 44.04649 2.28298 32998 ft 456 kts 114°
2026-05-06 20:05 44.02437 2.36561 33002 ft 456 kts 114°
2026-05-06 20:05 44.00221 2.44812 33007 ft 456 kts 114°
2026-05-06 20:06 43.97996 2.53057 32998 ft 456 kts 115°
2026-05-06 20:06 43.95762 2.61298 32992 ft 456 kts 115°
2026-05-06 20:07 43.93527 2.69552 32981 ft 457 kts 115°
2026-05-06 20:07 43.92413 2.73671 32783 ft 452 kts 115°
2026-05-06 20:07 43.91314 2.77721 32531 ft 446 kts 116°
2026-05-06 20:08 43.90233 2.81674 32285 ft 442 kts 116°
2026-05-06 20:08 43.89145 2.85644 32034 ft 439 kts 116°
2026-05-06 20:08 43.88063 2.89600 31784 ft 438 kts 116°
2026-05-06 20:08 43.86983 2.93542 31532 ft 435 kts 116°
2026-05-06 20:09 43.85913 2.97444 31101 ft 433 kts 116°
2026-05-06 20:09 43.84842 3.01338 30584 ft 432 kts 116°
2026-05-06 20:09 43.83769 3.05225 30084 ft 431 kts 117°
2026-05-06 20:09 43.82698 3.09094 29596 ft 429 kts 117°
2026-05-06 20:10 43.81629 3.12953 29110 ft 428 kts 117°
2026-05-06 20:10 43.80564 3.16792 28634 ft 426 kts 117°
2026-05-06 20:10 43.79503 3.20609 28168 ft 424 kts 116°
2026-05-06 20:10 43.78446 3.24418 27692 ft 422 kts 116°
2026-05-06 20:11 43.77411 3.28153 27235 ft 420 kts 116°
2026-05-06 20:11 43.76363 3.31915 26752 ft 419 kts 116°
2026-05-06 20:11 43.75312 3.35679 26263 ft 418 kts 115°
2026-05-06 20:11 43.74268 3.39419 25764 ft 416 kts 115°
2026-05-06 20:12 43.73228 3.43141 25253 ft 415 kts 115°
2026-05-06 20:12 43.72186 3.46860 24748 ft 413 kts 115°
2026-05-06 20:12 43.71148 3.50556 24237 ft 412 kts 114°
2026-05-06 20:12 43.70118 3.54219 23762 ft 408 kts 114°
2026-05-06 20:13 43.69094 3.57860 23350 ft 404 kts 114°
2026-05-06 20:13 43.68079 3.61470 22684 ft 399 kts 114°
2026-05-06 20:13 43.67087 3.64992 22162 ft 388 kts 114°
2026-05-06 20:13 43.66123 3.68408 21683 ft 376 kts 114°
2026-05-06 20:14 43.65181 3.71734 21231 ft 365 kts 114°
2026-05-06 20:14 43.64266 3.74956 20780 ft 355 kts 114°
2026-05-06 20:14 43.63374 3.78091 20352 ft 347 kts 114°
2026-05-06 20:14 43.62497 3.81162 19922 ft 348 kts 114°
2026-05-06 20:15 43.61607 3.84274 19495 ft 350 kts 114°
2026-05-06 20:15 43.60713 3.87403 19060 ft 350 kts 114°
2026-05-06 20:15 43.59815 3.90534 18633 ft 351 kts 114°
2026-05-06 20:15 43.58917 3.93664 18202 ft 352 kts 114°
2026-05-06 20:16 43.58017 3.96802 17783 ft 352 kts 115°
2026-05-06 20:16 43.56934 3.99812 17391 ft 349 kts 121°
2026-05-06 20:16 43.55798 4.02762 16994 ft 349 kts 121°
2026-05-06 20:16 43.54659 4.05711 16602 ft 348 kts 121°
2026-05-06 20:17 43.53523 4.08651 16213 ft 347 kts 121°
2026-05-06 20:17 43.52390 4.11584 15820 ft 346 kts 121°
2026-05-06 20:17 43.51259 4.14502 15447 ft 345 kts 121°
2026-05-06 20:17 43.50124 4.17415 15074 ft 344 kts 120°
2026-05-06 20:18 43.48995 4.20302 14817 ft 339 kts 121°
2026-05-06 20:18 43.47890 4.23122 14669 ft 330 kts 121°
2026-05-06 20:18 43.46804 4.25887 14390 ft 327 kts 121°
2026-05-06 20:18 43.45724 4.28634 14075 ft 325 kts 121°
2026-05-06 20:19 43.44664 4.31325 13773 ft 323 kts 121°
2026-05-06 20:19 43.43592 4.34036 13459 ft 321 kts 121°
2026-05-06 20:19 43.42526 4.36729 13108 ft 318 kts 121°
2026-05-06 20:19 43.41466 4.39396 12560 ft 316 kts 121°
2026-05-06 20:20 43.40410 4.42037 12055 ft 313 kts 120°
2026-05-06 20:20 43.39361 4.44641 11536 ft 310 kts 121°
2026-05-06 20:20 43.38315 4.47224 11007 ft 308 kts 121°
2026-05-06 20:20 43.37273 4.49777 10486 ft 305 kts 121°
2026-05-06 20:21 43.36233 4.52301 10088 ft 302 kts 121°
2026-05-06 20:21 43.35197 4.54803 9751 ft 300 kts 121°
2026-05-06 20:21 43.34165 4.57283 9394 ft 298 kts 121°
2026-05-06 20:21 43.33137 4.59739 9022 ft 296 kts 121°
2026-05-06 20:22 43.32124 4.62147 8694 ft 294 kts 121°
2026-05-06 20:22 43.31102 4.64572 8443 ft 293 kts 120°
2026-05-06 20:22 43.30351 4.67160 8186 ft 293 kts 105°
2026-05-06 20:22 43.29875 4.69870 7937 ft 290 kts 103°
2026-05-06 20:23 43.29432 4.72573 7680 ft 290 kts 103°
2026-05-06 20:23 43.28991 4.75278 7437 ft 290 kts 103°
2026-05-06 20:23 43.28555 4.77973 7176 ft 288 kts 102°
2026-05-06 20:23 43.28124 4.80650 6927 ft 286 kts 103°
2026-05-06 20:24 43.27694 4.83316 6673 ft 285 kts 103°
2026-05-06 20:24 43.27267 4.85970 6419 ft 284 kts 103°
2026-05-06 20:24 43.26843 4.88613 6172 ft 283 kts 103°
2026-05-06 20:24 43.26421 4.91246 5919 ft 282 kts 103°
2026-05-06 20:25 43.26001 4.93868 5673 ft 281 kts 103°
2026-05-06 20:25 43.25588 4.96446 5411 ft 280 kts 103°
2026-05-06 20:25 43.25174 4.99050 5282 ft 279 kts 103°
2026-05-06 20:25 43.24785 5.01658 5184 ft 279 kts 98°
2026-05-06 20:26 43.24631 5.04309 5050 ft 279 kts 93°
2026-05-06 20:26 43.24539 5.06967 4927 ft 278 kts 93°
2026-05-06 20:26 43.24454 5.09620 4801 ft 277 kts 93°
2026-05-06 20:26 43.24373 5.12208 4672 ft 265 kts 93°
2026-05-06 20:27 43.24298 5.14683 4572 ft 253 kts 93°
2026-05-06 20:27 43.24228 5.17035 4482 ft 241 kts 93°
2026-05-06 20:27 43.24160 5.19314 4382 ft 238 kts 93°
2026-05-06 20:27 43.24327 5.21556 4214 ft 237 kts 70°
2026-05-06 20:28 43.25085 5.23481 4114 ft 228 kts 57°
2026-05-06 20:28 43.25915 5.25276 4065 ft 217 kts 57°
2026-05-06 20:28 43.26717 5.27005 3892 ft 213 kts 57°
2026-05-06 20:28 43.27517 5.28728 3626 ft 215 kts 57°
2026-05-06 20:29 43.28324 5.30462 3361 ft 216 kts 55°
2026-05-06 20:29 43.29415 5.31845 3065 ft 215 kts 24°
2026-05-06 20:29 43.30849 5.32232 2845 ft 209 kts 352°
2026-05-06 20:29 43.32234 5.31778 2716 ft 199 kts 342°
2026-05-06 20:30 43.33513 5.31289 2558 ft 182 kts 342°
2026-05-06 20:30 43.35765 5.30436 2244 ft 159 kts 341°
2026-05-06 20:30 43.36815 5.30021 2122 ft 156 kts 340°
2026-05-06 20:31 43.37831 5.29547 1991 ft 153 kts 328°
2026-05-06 20:31 43.38650 5.28648 1780 ft 151 kts 309°
2026-05-06 20:31 43.39377 5.27618 1507 ft 149 kts 310°
2026-05-06 20:31 43.40109 5.26586 1208 ft 152 kts 310°
2026-05-06 20:32 43.40835 5.25546 959 ft 150 kts 310°
2026-05-06 20:32 43.41560 5.24505 666 ft 150 kts 310°
2026-05-06 20:32 43.42280 5.23483 389 ft 147 kts 312°
2026-05-06 20:32 43.42989 5.22472 146 ft 146 kts 311°
2026-05-06 20:33 43.43675 5.21497 40 ft 133 kts 311°
2026-05-06 20:33 43.44216 5.20727 35 ft 88 kts 314°
2026-05-06 20:33 43.44488 5.20341 37 ft 33 kts 314°
2026-05-06 20:33 43.44615 5.20227 36 ft 13 kts 14°
2026-05-06 20:34 43.44671 5.20293 37 ft 10 kts 63°
2026-05-06 20:34 43.44650 5.20383 37 ft 11 kts 133°
2026-05-06 20:34 43.44588 5.20469 37 ft 14 kts 135°
2026-05-06 20:34 43.44513 5.20579 37 ft 18 kts 131°
2026-05-06 20:35 43.44420 5.20708 37 ft 19 kts 134°
2026-05-06 20:35 43.44342 5.20818 37 ft 16 kts 133°
2026-05-06 20:35 43.44282 5.20954 36 ft 18 kts 119°
2026-05-06 20:35 43.44202 5.21088 37 ft 18 kts 134°
2026-05-06 20:36 43.44105 5.21224 37 ft 21 kts 134°
2026-05-06 20:36 43.44003 5.21369 37 ft 18 kts 133°
2026-05-06 20:36 43.43932 5.21472 36 ft 13 kts 132°
2026-05-06 20:36 43.43946 5.21590 37 ft 13 kts 44°
2026-05-06 20:37 43.43975 5.21705 37 ft 15 kts 117°
2026-05-06 20:37 43.43905 5.21813 37 ft 16 kts 134°
2026-05-06 20:37 43.43825 5.21926 37 ft 14 kts 134°
2026-05-06 20:37 43.43793 5.22039 37 ft 14 kts 58°
2026-05-06 20:38 43.43834 5.22119 37 ft 3 kts 89°
2026-05-06 20:38 43.43817 5.22151 37 ft 7 kts 138°
2026-05-06 20:38 43.43773 5.22220 37 ft 11 kts 132°
2026-05-06 20:38 43.43733 5.22317 37 ft 13 kts 88°
2026-05-06 20:39 43.43755 5.22429 37 ft 11 kts 74°
2026-05-06 20:39 43.43792 5.22525 36 ft 11 kts 36°
2026-05-06 20:39 43.43854 5.22560 37 ft 9 kts 359°
2026-05-06 20:39 43.43887 5.22522 37 ft 4 kts 283°
2026-05-06 20:40 43.43884 5.22483 35 ft 3 kts 263°
2026-05-06 20:40 43.43883 5.22469 37 ft 0 kts 264°
2026-05-06 20:40 43.43883 5.22466 37 ft 0 kts 264°